• MPC Preparation (Info)

  • MPEC 2019-N90 : 2019 NM2

    The following Minor Planet Electronic Circular may be linked-to from your own Web pages, but must not otherwise be redistributed electronically.

    A form allowing access to any MPEC is at the bottom of this page.


    Read MPEC 2019-N89 Read MPEC 2019-N91


    M.P.E.C. 2019-N90                                Issued 2019 July 6, 02:58 UT  
    
         The Minor Planet Electronic Circulars contain information on unusual
             minor planets and routine data on comets.  They are published
        on behalf of Division F of the International Astronomical Union by the
              Minor Planet Center, Smithsonian Astrophysical Observatory,
                              Cambridge, MA 02138, U.S.A.
    
                 Prepared using the Tamkin Foundation Computer Network
    
                                  MPC@CFA.HARVARD.EDU
                URL https://www.minorplanetcenter.net/    ISSN 1523-6714
    
                                    2019 NM2                                 
    
    Observations:
         K19N02M  C2019 06 30.48403620 24 55.475-12 03 53.73         21.3 GVEN090F51
         K19N02M  C2019 06 30.49640720 24 58.307-12 05 22.14         21.3 GVEN090F51
         K19N02M* C2019 07 04.46479 20 44 09.682-20 34 54.49         21.5 wUEN090F51
         K19N02M  C2019 07 04.48808 20 44 16.105-20 38 07.07         20.8 wUEN090F51
         K19N02M  C2019 07 04.49973 20 44 19.297-20 39 42.92         21.3 wUEN090F51
         K19N02M  C2019 07 05.29896 20 48 38.89 -22 30 03.0          20.9 GVEN090I52
         K19N02M  C2019 07 05.30063 20 48 39.31 -22 30 17.6          20.9 GVEN090I52
         K19N02M  C2019 07 05.30229 20 48 39.82 -22 30 31.3          21.8 GVEN090I52
         K19N02M  C2019 07 05.30396 20 48 40.26 -22 30 45.3          21.7 GVEN090I52
         K19N02M ^C2019 07 05.55862020 49 58.983-23 06 03.52         21.02GVEN090568
    
    Observer details:
    568 Mauna Kea.  Observers R. Wainscoat, C. Crowder, T. Burdullis.  
        Measurers R. Weryk, R. Wainscoat.  
        3.6-m Canada-France-Hawaii Telescope + CCD.
    F51 Pan-STARRS 1, Haleakala.  Observers J. Bulger, K. Chambers, T. Lowe,
        E. Magnier, A. Schultz, M. Willman.  Measurers S. Chastel, M. Huber,
        Y. Ramanjooloo, R. Wainscoat, R. Weryk, K. Chambers, T. de Boer, L. Denneau,
        J. Fairlamb, H. Flewelling, C.-C. Lin, E. Magnier.  
        1.8-m Ritchey-Chretien + CCD.
    I52 Steward Observatory, Mt. Lemmon Station.  Observer G. J. Leonard.  
        Measurers B. M. Africano, E. J. Christensen, G. A. Farneth, D. C. Fuls,
        A. R. Gibbs, A. D. Grauer, H. Groeller, R. A. Kowalski, S. M. Larson,
        G. J. Leonard, T. A. Pruyne, D. Rankin, R. L. Seaman, F. C. Shelly.  
        1.0-m reflector + CCD.
    
    Orbital elements:
    2019 NM2                                                 Earth MOID = 0.0781 AU
    Epoch 2019 Apr. 27.0 TT = JDT 2458600.5                 MPC
    M 297.37899              (2000.0)            P               Q
    n   0.66850885     Peri.  204.42423     +0.59988083     +0.77165182
    a   1.2953823      Node   103.12798     -0.69372702     +0.63329105
    e   0.1633433      Incl.   12.53811     -0.39860483     +0.05912627
    P   1.47           H   25.2           G   0.15           U   7
    Residuals in seconds of arc
    190630 F51  0.0   0.0     190704 F51  0.0   0.3-    190705 I52  0.4-  0.2+
    190630 F51  0.0   0.1+    190705 I52  1.0+  0.3+    190705 568  0.1-  0.1+
    190704 F51  0.2-  0.4+    190705 I52  0.0   0.2-
    190704 F51  0.0   0.2-    190705 I52  0.3+  0.1+
    
    Ephemeris:
    2019 NM2                 a,e,i = 1.30, 0.16, 13                  q = 1.0838
    Date    TT    R. A. (2000) Decl.     Delta      r    Elong.  Phase     V
    2019 06 06    19 12 16.5 +13 07 36   0.1774  1.1385   130.8    42.4    23.4
    ...
    2019 06 21    19 49 50.3 +02 40 58   0.1202  1.1133   141.9    34.2    22.3
    ...
    2019 06 29    20 18 31.5 -09 12 26   0.09771 1.1026   150.4    27.1    21.6
    ...
    2019 07 05    20 46 58.1 -21 47 14   0.08755 1.0961   153.9    24.1    21.2
    2019 07 06    20 52 28.1 -24 06 41   0.08657 1.0951   153.8    24.2    21.2
    2019 07 07    20 58 12.8 -26 28 14   0.08582 1.0942   153.4    24.5    21.2
    ...
    2019 07 13    21 38 22.1 -40 28 20   0.08598 1.0894   146.6    30.9    21.4
    ...
    2019 07 21    22 46 54.6 -54 59 18   0.09714 1.0853   133.5    42.8    22.0
    ...
    2019 08 05    00 58 50.2 -65 34 29   0.1358  1.0845   117.7    55.9    23.1
    
    A. U. Tomatic                (C) Copyright 2019 MPC           M.P.E.C. 2019-N90
    


    Read MPEC 2019-N89 Read MPEC 2019-N91


    MPEC number:

    Enter an MPEC number in one of the following forms:

    • 1997-B01 (the full form)
    • J97B01 (the packed version of the full form)
    • B01 (the abbreviated form)